CAPE
0 0 0 0 0 0 0 0 0 0 0 0 0 0 0 0 0 0 0 0 0 0 0 0 0 0 0 0 0 62 41 0 14 46 121 313 154 416 434 308 275 193 134 93 53
0 0 0 0 0 0 0 0 0 0 0 0 0 0 0 0 0 0 0 0 0 0 0 0 0 0 0 0 0 7 4 0 74 118 234 360 209 278 305 266 190 77 77 97 168
0 0 0 0 0 0 0 0 0 0 0 0 0 0 0 0 0 0 0 0 0 0 0 0 0 0 0 0 0 33 0 3 286 246 420 367 302 249 101 118 119 52 108 163 245
0 0 0 0 0 0 0 0 0 0 0 0 0 0 0 0 0 0 0 0 0 0 0 0 0 0 0 0 11 70 103 61 416 378 421 326 313 210 119 55 141 135 140 167 191
0 0 0 0 0 0 0 0 0 0 0 0 0 0 0 0 0 0 0 0 0 0 0 0 0 0 0 0 15 26 282 220 43 255 374 381 277 190 137 72 243 269 214 168 182
0 0 0 0 0 0 0 0 0 0 0 0 0 0 0 0 0 0 0 0 0 0 0 0 0 0 0 0 0 338 361 118 109 291 528 390 285 211 98 100 428 309 180 226 215
0 0 0 0 0 0 0 0 0 0 0 0 0 0 0 0 0 0 0 0 0 0 0 0 0 0 0 0 89 43 27 83 2 68 389 563 407 216 182 86 250 280 269 231 213
0 0 0 0 0 0 0 0 0 0 0 0 0 0 0 0 0 0 0 0 0 0 0 0 0 0 0 0 0 0 0 0 0 70 298 635 30 187 331 83 75 95 168 153 215
0 0 0 0 0 0 0 0 0 0 0 0 0 0 0 0 0 0 0 0 0 0 0 0 0 0 0 0 0 0 0 0 0 116 219 564 98 326 351 268 7 28 61 52 179
0 0 0 0 0 0 0 0 0 0 0 0 0 0 0 0 0 0 0 0 0 0 0 0 0 0 0 0 0 0 0 0 0 0 340 530 189 418 385 302 28 6 17 55 172
0 0 0 0 0 0 0 0 0 0 0 0 0 0 0 0 0 0 0 0 0 0 0 0 0 0 0 0 0 0 0 0 0 0 252 365 241 310 553 407 127 104 90 113 105
0 0 0 0 0 0 0 0 0 0 0 0 0 0 0 0 0 0 0 0 0 0 0 0 0 0 0 0 0 0 0 0 0 12 292 364 263 393 516 526 491 280 151 82 113
0 0 0 0 0 0 0 0 0 0 0 0 0 0 0 0 0 0 0 0 0 0 0 0 0 0 0 0 0 0 0 0 0 0 393 223 147 81 307 511 583 471 239 52 56
0 0 0 0 0 0 0 0 0 0 0 0 0 0 0 0 0 0 0 0 0 0 0 0 0 0 0 0 0 0 0 0 0 0 0 29 0 0 4 213 477 529 216 138 83
0 0 0 0 0 0 0 0 0 0 0 0 0 0 0 0 0 0 0 0 0 0 0 0 0 0 0 0 0 0 0 0 0 0 0 0 0 0 0 0 176 465 270 182 85
0 0 0 0 0 0 0 0 0 0 0 0 0 0 0 0 0 0 0 0 0 0 0 0 0 0 0 0 0 0 0 0 0 0 0 0 0 0 0 0 0 380 404 150 119
0 0 0 0 0 0 0 0 0 0 0 0 0 0 0 0 0 0 0 0 0 0 0 0 0 0 0 0 0 0 0 0 0 0 0 0 0 0 0 0 0 45 197 386 56
0 0 0 0 0 0 0 0 0 0 0 0 0 0 0 0 0 0 0 0 0 0 0 0 0 0 0 0 0 0 0 0 0 0 0 0 0 0 0 0 2 39 48 144 111
0 0 0 0 0 0 0 0 0 0 0 0 0 0 0 0 0 0 0 0 0 0 0 0 0 0 0 0 0 0 0 0 0 0 0 0 0 0 2 15 48 58 48 63 206
0 0 0 0 0 0 0 0 0 0 0 0 0 0 0 0 0 0 0 0 0 0 0 0 0 0 0 0 0 0 0 0 0 0 0 0 0 0 0 53 47 33 95 79 27
0 0 0 0 0 0 0 0 0 0 0 0 0 0 0 0 0 0 0 0 0 0 0 0 0 0 0 0 0 0 0 0 0 0 0 0 0 0 0 9 56 65 70 120 42
0 0 0 0 0 0 0 0 0 0 0 0 0 0 0 0 0 0 0 0 0 0 0 0 0 0 0 0 0 0 0 0 0 0 0 0 0 0 0 0 73 84 113 101 69
0 0 0 0 0 0 0 0 0 0 0 0 0 0 0 0 0 0 0 0 0 0 0 0 0 0 0 0 2 3 0 0 0 0 0 0 0 0 0 0 63 234 271 224 107
0 0 0 0 0 0 0 0 0 0 0 0 0 0 0 0 0 0 0 0 0 0 0 0 0 0 0 0 29 93 95 22 0 0 0 0 0 0 0 0 11 142 156 193 47
0 0 0 0 0 0 0 0 0 0 0 0 0 0 0 0 0 0 0 0 0 0 0 0 0 0 0 0 0 61 109 96 42 6 0 0 0 0 0 0 4 9 21 139 9
0 0 0 0 0 0 0 0 0 0 0 0 0 0 0 0 0 0 0 0 0 0 0 0 0 0 0 0 0 0 0 0 77 42 0 0 0 0 1 0 11 51 59 111 1
0 0 0 0 0 0 0 0 0 0 0 0 0 0 0 0 0 0 0 0 0 0 0 0 0 0 0 0 0 0 0 16 60 8 1 32 41 382 112 69 12 13 142 106 0
CIN
-0 -0 -0 -0 -0 -0 -0 -0 -0 -0 -0 -0 -0 -0 -0 -0 -0 -0 -0 -0 -0 -0 -0 -0 -0 -0 -0 -0 -0 -145 -74 -0 -23 -36 -52 -14 -17 -35 -46 -42 -66 -80 -114 -140 -189
-0 -0 -0 -0 -0 -0 -0 -0 -0 -0 -0 -0 -0 -0 -0 -0 -0 -0 -0 -0 -0 -0 -0 -0 -0 -0 -0 -0 -0 -86 -22 -0 -73 -58 -39 -22 -20 -34 -43 -53 -79 -113 -152 -179 -136
-0 -0 -0 -0 -0 -0 -0 -0 -0 -0 -0 -0 -0 -0 -0 -0 -0 -0 -0 -0 -0 -0 -0 -0 -0 -0 -0 -0 -0 -52 -0 -38 -64 -74 -37 -19 -15 -40 -64 -46 -66 -62 -122 -128 -106
-0 -0 -0 -0 -0 -0 -0 -0 -0 -0 -0 -0 -0 -0 -0 -0 -0 -0 -0 -0 -0 -0 -0 -0 -0 -0 -0 -0 -36 -52 -79 -75 -63 -76 -60 -29 -36 -30 -51 -83 -60 -91 -107 -123 -83
-0 -0 -0 -0 -0 -0 -0 -0 -0 -0 -0 -0 -0 -0 -0 -0 -0 -0 -0 -0 -0 -0 -0 -0 -0 -0 -0 -0 -36 -41 -46 -86 -144 -103 -74 -78 -49 -60 -63 -117 -70 -93 -124 -115 -94
-0 -0 -0 -0 -0 -0 -0 -0 -0 -0 -0 -0 -0 -0 -0 -0 -0 -0 -0 -0 -0 -0 -0 -0 -0 -0 -0 -0 -0 -60 -54 -85 -130 -117 -85 -99 -83 -96 -98 -154 -108 -98 -107 -105 -110
-0 -0 -0 -0 -0 -0 -0 -0 -0 -0 -0 -0 -0 -0 -0 -0 -0 -0 -0 -0 -0 -0 -0 -0 -0 -0 -0 -0 -110 -116 -99 -121 -42 -148 -115 -119 -89 -72 -108 -224 -147 -133 -100 -78 -61
-0 -0 -0 -0 -0 -0 -0 -0 -0 -0 -0 -0 -0 -0 -0 -0 -0 -0 -0 -0 -0 -0 -0 -0 -0 -0 -0 -0 -0 -0 -0 -0 -0 -146 -148 -120 -51 -95 -166 -193 -179 -197 -146 -109 -84
-0 -0 -0 -0 -0 -0 -0 -0 -0 -0 -0 -0 -0 -0 -0 -0 -0 -0 -0 -0 -0 -0 -0 -0 -0 -0 -0 -0 -0 -0 -0 -0 -0 -110 -106 -115 -59 -106 -163 -154 -103 -254 -186 -166 -86
-0 -0 -0 -0 -0 -0 -0 -0 -0 -0 -0 -0 -0 -0 -0 -0 -0 -0 -0 -0 -0 -0 -0 -0 -0 -0 -0 -0 -0 -0 -0 -0 -0 -0 -107 -98 -45 -107 -145 -154 -170 -138 -225 -167 -121
-0 -0 -0 -0 -0 -0 -0 -0 -0 -0 -0 -0 -0 -0 -0 -0 -0 -0 -0 -0 -0 -0 -0 -0 -0 -0 -0 -0 -0 -0 -0 -0 -0 -0 -76 -49 -47 -85 -119 -169 -176 -163 -172 -166 -131
-0 -0 -0 -0 -0 -0 -0 -0 -0 -0 -0 -0 -0 -0 -0 -0 -0 -0 -0 -0 -0 -0 -0 -0 -0 -0 -0 -0 -0 -0 -0 -0 -0 -86 -69 -65 -42 -90 -144 -154 -164 -160 -173 -180 -134
-0 -0 -0 -0 -0 -0 -0 -0 -0 -0 -0 -0 -0 -0 -0 -0 -0 -0 -0 -0 -0 -0 -0 -0 -0 -0 -0 -0 -0 -0 -0 -0 -0 -0 -81 -71 -46 -35 -135 -221 -239 -208 -201 -200 -156
-0 -0 -0 -0 -0 -0 -0 -0 -0 -0 -0 -0 -0 -0 -0 -0 -0 -0 -0 -0 -0 -0 -0 -0 -0 -0 -0 -0 -0 -0 -0 -0 -0 -0 -0 -13 -0 -0 -48 -171 -280 -218 -226 -223 -197
-0 -0 -0 -0 -0 -0 -0 -0 -0 -0 -0 -0 -0 -0 -0 -0 -0 -0 -0 -0 -0 -0 -0 -0 -0 -0 -0 -0 -0 -0 -0 -0 -0 -0 -0 -0 -0 -0 -0 -0 -140 -271 -246 -256 -234
-0 -0 -0 -0 -0 -0 -0 -0 -0 -0 -0 -0 -0 -0 -0 -0 -0 -0 -0 -0 -0 -0 -0 -0 -0 -0 -0 -0 -0 -0 -0 -0 -0 -0 -0 -0 -0 -0 -0 -0 -0 -190 -251 -265 -250
-0 -0 -0 -0 -0 -0 -0 -0 -0 -0 -0 -0 -0 -0 -0 -0 -0 -0 -0 -0 -0 -0 -0 -0 -0 -0 -0 -0 -0 -0 -0 -0 -0 -0 -0 -0 -0 -0 -0 -0 -0 -196 -272 -267 -363
-0 -0 -0 -0 -0 -0 -0 -0 -0 -0 -0 -0 -0 -0 -0 -0 -0 -0 -0 -0 -0 -0 -0 -0 -0 -0 -0 -0 -0 -0 -0 -0 -0 -0 -0 -0 -0 -0 -0 -0 -232 -266 -263 -319 -309
-0 -0 -0 -0 -0 -0 -0 -0 -0 -0 -0 -0 -0 -0 -0 -0 -0 -0 -0 -0 -0 -0 -0 -0 -0 -0 -0 -0 -0 -0 -0 -0 -0 -0 -0 -0 -0 -0 -56 -107 -97 -226 -272 -279 -249
-0 -0 -0 -0 -0 -0 -0 -0 -0 -0 -0 -0 -0 -0 -0 -0 -0 -0 -0 -0 -0 -0 -0 -0 -0 -0 -0 -0 -0 -0 -0 -0 -0 -0 -0 -0 -0 -0 -0 -34 -37 -157 -186 -253 -304
-0 -0 -0 -0 -0 -0 -0 -0 -0 -0 -0 -0 -0 -0 -0 -0 -0 -0 -0 -0 -0 -0 -0 -0 -0 -0 -0 -0 -0 -0 -0 -0 -0 -0 -0 -0 -0 -0 -0 -40 -39 -55 -118 -201 -251
-0 -0 -0 -0 -0 -0 -0 -0 -0 -0 -0 -0 -0 -0 -0 -0 -0 -0 -0 -0 -0 -0 -0 -0 -0 -0 -0 -0 -0 -0 -0 -0 -0 -0 -0 -0 -0 -0 -0 -0 -94 -66 -125 -177 -251
-0 -0 -0 -0 -0 -0 -0 -0 -0 -0 -0 -0 -0 -0 -0 -0 -0 -0 -0 -0 -0 -0 -0 -0 -7 -0 -0 -0 -145 -35 -0 -0 -0 -0 -0 -0 -0 -0 -0 -0 -97 -123 -121 -197 -279
-0 -0 -0 -0 -0 -0 -0 -0 -0 -0 -0 -0 -0 -0 -0 -0 -0 -0 -0 -0 -0 -0 -0 -0 -49 -48 -0 -0 -269 -178 -211 -163 -0 -0 -0 -0 -0 -0 -0 -0 -120 -115 -184 -246 -318
-0 -0 -0 -0 -0 -0 -0 -0 -0 -0 -0 -0 -0 -0 -0 -0 -0 -0 -0 -0 -0 -0 -0 -0 -0 -0 -0 -0 -0 -202 -237 -231 -173 -161 -0 -0 -0 -0 -0 -0 -138 -228 -219 -293 -326
-0 -0 -0 -0 -0 -0 -0 -0 -0 -0 -0 -0 -0 -0 -0 -0 -0 -0 -0 -0 -0 -0 -0 -0 -0 -0 -0 -0 -0 -0 -0 -0 -190 -166 -39 -1 -0 -0 -76 -2 -118 -175 -214 -228 -44
-0 -0 -0 -0 -0 -0 -0 -0 -0 -0 -0 -0 -0 -0 -0 -0 -0 -0 -0 -0 -0 -0 -0 -0 -0 -0 -0 -0 -0 -0 -0 -95 -125 -225 -55 -126 -174 -244 -142 -169 -169 -125 -205 -225 -11
Wind_Speed
15 16 16 16 16 16 16 16 17 18 18 18 18 17 17 17 17 17 19 20 19 21 12 14 5 12 12 16 13 15 17 22 21 21 22 17 13 14 16 12 14 11 12 13 17
15 15 15 16 16 16 16 16 17 18 18 18 18 17 17 16 16 18 19 20 22 20 15 13 13 16 18 15 15 14 17 20 20 19 20 16 12 12 13 13 15 14 15 16 16
14 14 15 15 15 15 15 15 16 17 18 18 18 17 17 15 16 17 17 21 22 19 18 15 13 20 21 21 14 13 20 17 18 17 17 16 13 13 9 13 9 10 12 14 15
13 14 14 15 15 15 15 16 16 17 18 18 18 17 16 16 13 17 15 20 22 19 18 16 17 20 22 22 15 16 17 16 18 19 19 17 15 14 10 9 10 13 16 14 16
13 14 14 15 15 15 15 15 16 17 18 19 19 18 18 18 19 17 15 18 19 18 17 13 16 17 22 21 10 16 15 18 19 19 18 16 14 13 10 11 13 12 13 14 16
14 14 15 15 15 15 16 16 16 17 17 18 19 19 19 21 18 18 17 17 16 17 15 13 13 15 19 20 17 17 16 17 17 17 17 17 15 14 13 13 13 10 11 12 13
15 16 16 16 16 17 17 17 17 17 17 18 19 19 21 21 13 12 16 18 17 16 12 13 11 15 21 19 16 17 18 18 13 16 16 16 16 10 11 13 14 12 10 11 13
18 18 18 18 18 18 18 18 18 18 18 17 14 15 20 20 23 22 18 18 18 18 14 12 10 10 12 14 17 16 20 23 17 14 16 15 18 11 10 11 11 12 12 12 12
20 20 20 20 20 20 20 20 18 16 14 11 14 16 20 21 19 18 12 16 10 19 15 19 10 12 14 17 18 17 21 24 26 9 14 11 21 19 9 9 8 11 13 14 10
22 22 22 22 22 21 21 19 13 13 13 15 17 18 19 12 11 3 10 9 12 12 17 9 14 13 11 12 14 20 27 25 10 20 6 7 6 13 9 7 8 10 14 16 16
24 24 24 24 23 22 19 14 15 16 14 9 11 12 17 17 15 6 2 4 8 11 7 12 13 8 13 6 6 19 22 16 21 25 5 2 4 3 4 4 8 13 15 12 14
26 26 26 26 25 23 18 14 14 16 24 7 10 13 20 16 18 14 3 4 4 2 11 15 2 11 8 11 9 6 10 20 21 17 5 11 8 3 2 7 11 11 11 13 14
26 26 26 26 25 17 13 15 14 21 20 22 13 12 10 7 9 8 3 3 8 5 6 5 4 15 17 23 28 26 8 18 8 25 10 21 17 2 4 2 7 12 11 14 20
24 24 24 24 17 14 14 16 24 10 19 17 16 15 7 9 16 2 1 4 9 2 5 13 11 3 6 15 21 18 24 2 12 21 26 15 12 19 3 3 3 9 14 20 25
25 25 24 20 14 11 15 21 13 14 12 14 13 12 9 6 15 9 4 1 3 4 7 8 12 11 17 18 19 16 26 28 22 20 21 20 17 16 23 0 7 9 17 21 24
25 23 21 12 11 14 20 17 12 13 11 14 12 12 11 8 13 13 6 7 13 6 12 8 19 18 17 23 16 27 25 24 23 22 21 19 18 21 22 1 7 7 16 17 20
22 20 12 10 8 18 18 12 11 11 16 16 17 11 10 11 13 14 7 1 5 10 5 12 8 23 20 25 27 19 23 27 29 27 16 19 17 20 20 10 11 11 14 17 16
18 14 11 13 8 16 12 9 10 14 17 19 20 14 11 12 13 15 10 4 8 13 19 17 27 11 12 8 18 24 19 22 23 25 25 22 19 27 30 24 8 13 12 12 8
13 18 17 13 13 10 8 7 11 12 18 20 20 14 14 19 18 19 20 21 17 10 13 19 15 17 19 22 23 25 21 21 18 22 24 21 20 26 23 17 13 9 11 12 13
17 19 18 15 12 11 8 8 9 12 22 14 15 15 16 20 19 21 21 25 22 22 12 15 17 19 32 22 18 13 16 17 18 22 23 19 21 26 23 16 12 6 11 10 16
17 17 18 15 12 12 11 8 11 23 18 14 13 13 13 16 17 18 22 21 27 27 19 22 19 22 19 14 18 19 20 20 18 20 25 25 23 19 29 14 5 10 16 11 14
17 16 15 12 15 14 12 12 14 22 20 17 16 16 18 22 20 19 18 21 27 24 24 23 22 29 22 23 25 22 22 19 23 26 22 22 25 22 26 30 29 19 16 11 12
17 16 14 14 15 16 15 14 16 17 21 19 20 19 19 20 19 18 20 20 27 24 26 26 25 32 35 24 22 20 22 21 19 19 24 27 27 24 25 25 28 30 19 16 11
17 14 15 13 14 16 18 15 17 20 19 18 20 19 20 21 23 21 25 23 26 24 26 23 25 27 33 29 30 30 30 24 23 26 27 30 34 30 27 25 28 7 24 21 7
19 15 15 14 14 20 17 16 18 19 19 23 20 22 24 24 27 25 26 30 29 25 26 26 32 29 31 33 33 38 34 32 31 28 31 34 33 34 30 31 29 19 8 24 15
18 18 19 16 18 16 19 20 20 20 21 21 22 23 22 23 25 31 31 28 27 27 31 28 30 33 42 33 35 43 44 43 37 34 30 31 33 27 36 33 29 20 7 22 27
21 19 17 18 18 16 19 19 21 21 18 22 23 23 24 28 28 26 22 22 26 31 34 29 29 30 41 33 37 47 40 34 27 26 28 31 32 34 34 33 32 30 13 9 14
Wind_Direction
283 285 285 279 276 272 270 265 258 253 250 248 246 246 248 251 243 210 198 170 153 181 298 271 203 217 107 37 67 19 352 347 355 355 356 2 6 353 341 23 349 41 63 80 108
284 281 278 277 273 272 269 263 256 252 248 243 239 239 244 252 225 205 185 174 177 215 194 197 247 289 307 51 65 71 12 0 357 0 8 31 30 14 339 346 346 5 25 75 97
275 273 270 272 269 263 259 256 253 249 242 236 234 235 237 233 217 184 190 167 163 128 129 134 101 15 1 355 46 72 2 27 359 38 41 35 40 30 31 349 32 50 81 87 92
266 266 265 266 265 261 258 255 251 244 238 233 229 228 228 212 259 175 204 158 142 120 136 149 23 335 334 321 69 18 27 26 20 22 30 32 60 36 80 58 94 103 108 100 119
265 265 263 263 262 257 252 250 248 245 236 229 228 230 217 218 182 175 191 108 118 128 142 78 28 37 345 313 43 24 24 1 7 5 36 58 60 56 89 109 113 106 108 113 121
269 267 265 264 263 259 255 251 250 246 238 228 222 223 225 212 194 198 146 113 121 132 118 102 64 35 4 304 16 31 23 26 29 38 31 37 37 36 73 79 97 105 122 130 128
275 272 270 267 265 262 258 254 251 242 235 228 220 236 234 178 296 341 106 150 144 133 115 137 83 17 348 335 33 24 13 5 41 21 42 29 13 66 88 94 110 109 117 131 145
283 280 278 275 273 269 263 257 249 238 233 246 274 293 207 227 239 200 180 170 166 162 151 158 89 50 51 31 8 12 0 345 25 29 10 34 12 70 91 81 119 128 130 147 154
286 284 282 280 279 275 269 264 264 282 308 1 316 301 216 256 178 164 123 135 80 174 160 225 49 24 3 344 341 359 342 345 338 41 8 29 344 346 79 105 122 137 151 156 140
291 288 286 284 284 281 275 274 328 329 319 311 296 283 254 349 347 53 124 109 136 345 296 13 359 3 4 5 7 344 320 338 302 355 16 23 187 360 60 99 143 151 167 178 166
292 288 287 286 286 288 297 319 315 319 321 359 345 327 302 313 333 6 70 50 347 334 12 340 344 139 159 66 47 349 329 248 264 272 29 113 182 51 48 106 156 180 181 165 153
293 291 291 291 290 289 302 319 324 324 291 211 190 214 295 317 312 317 9 0 342 24 336 328 159 156 9 359 10 20 242 255 264 1 84 358 206 195 185 199 192 181 175 163 145
293 292 291 291 289 315 320 315 335 310 318 306 331 316 312 339 332 328 17 353 327 329 332 342 136 326 326 291 295 265 1 245 228 319 27 332 286 228 213 299 179 186 175 169 170
285 282 283 284 311 319 311 323 287 354 313 323 325 327 333 335 318 338 107 352 326 6 340 320 300 298 332 286 329 326 272 324 353 340 325 5 262 324 67 95 148 180 183 186 187
286 280 280 294 309 324 310 287 325 328 346 330 347 351 6 10 327 342 336 334 65 23 351 340 326 325 317 316 327 334 326 326 330 335 333 336 346 243 346 196 207 183 187 184 183
289 278 292 347 321 297 261 285 337 322 344 335 3 10 12 340 329 336 337 306 318 331 315 309 308 312 316 311 327 317 322 327 333 329 325 322 336 252 352 265 286 126 174 176 176
290 272 42 23 26 275 275 327 357 333 312 318 325 359 356 7 336 329 352 161 337 342 336 323 234 302 307 304 302 323 323 316 311 316 324 324 327 229 261 241 202 127 142 161 163
289 23 79 113 332 278 311 352 21 324 315 318 313 324 349 353 0 342 340 298 296 310 321 328 312 342 337 331 322 319 324 321 314 319 317 321 315 297 302 320 58 118 120 118 127
297 31 24 347 109 360 4 57 68 21 331 315 317 333 318 328 334 335 339 312 318 310 293 316 313 315 315 314 317 315 321 320 315 322 317 315 314 289 320 346 352 21 97 114 134
7 354 1 38 63 356 29 54 46 16 327 348 345 344 338 333 333 328 331 337 324 332 335 306 296 307 298 320 317 322 326 320 319 313 315 321 305 295 293 320 12 23 150 137 154
7 345 341 62 22 3 44 43 15 323 332 338 344 346 351 347 344 336 330 332 324 322 343 329 310 307 316 316 308 317 317 309 310 308 304 305 315 311 275 295 5 174 188 164 166
351 5 350 356 21 15 22 20 3 337 334 340 342 342 333 329 327 330 330 331 331 334 325 329 317 298 307 309 303 307 312 314 297 295 302 307 302 323 309 258 259 205 194 173 165
342 353 349 349 11 6 6 8 0 351 338 336 331 334 336 335 330 331 330 330 327 328 323 322 312 301 292 298 304 307 309 317 317 319 295 292 293 315 315 311 284 250 202 187 154
334 5 353 354 358 359 349 352 347 341 344 347 339 337 334 331 326 324 320 326 328 326 321 319 306 301 294 293 291 291 293 304 304 299 293 290 283 297 308 316 303 222 213 196 138
338 357 354 357 350 341 350 350 344 338 339 336 334 334 331 325 323 322 320 317 318 321 321 315 298 296 294 294 291 281 284 289 288 294 288 286 287 284 301 296 306 301 274 196 175
353 348 339 345 341 345 340 339 337 337 338 337 335 333 335 330 326 318 318 318 316 315 313 313 300 298 289 292 292 283 277 277 284 285 287 288 288 299 288 288 294 307 271 192 205
349 353 352 344 342 340 335 336 336 336 341 343 336 333 331 328 326 326 327 324 319 313 308 307 302 298 289 293 291 281 282 282 283 288 288 283 287 290 285 289 282 289 271 217 192